AAL3321 KLIT-KDTW

Flight info

Callsign AAL3321
Flight time 1h 24m
Altitude 35000
Route LIT J131 PXV VHP WWODD HANBL3
Aircraft B738/M-SDE2E3FGHIRWXY/LB1

Departure

Time 2026-05-07 12:43
Airport Bill & Hillary Clinton National Airport/Adams Field (KLIT)

Arrival

Time 2026-05-07 14:07
Airport Detroit Metropolitan Wayne County Airport (KDTW)
Time Latitude Longitude Altitude Speed Heading
2026-05-07 12:07 34.73040 -92.21908 263 ft 0 kts 307°
2026-05-07 12:30 34.73039 -92.21908 262 ft 0 kts 307°
2026-05-07 12:31 34.73030 -92.21895 262 ft 2 kts 323°
2026-05-07 12:31 34.73017 -92.21885 262 ft 2 kts 335°
2026-05-07 12:31 34.73003 -92.21880 262 ft 2 kts 349°
2026-05-07 12:31 34.72988 -92.21877 263 ft 2 kts
2026-05-07 12:32 34.72973 -92.21880 263 ft 2 kts 17°
2026-05-07 12:32 34.72961 -92.21886 263 ft 1 kts 29°
2026-05-07 12:32 34.72960 -92.21887 264 ft 0 kts 30°
2026-05-07 12:36 34.72960 -92.21886 263 ft 0 kts 30°
2026-05-07 12:36 34.72982 -92.21870 263 ft 7 kts 37°
2026-05-07 12:36 34.73015 -92.21812 262 ft 8 kts 84°
2026-05-07 12:36 34.72999 -92.21744 262 ft 8 kts 113°
2026-05-07 12:37 34.72972 -92.21671 262 ft 9 kts 114°
2026-05-07 12:37 34.72942 -92.21590 262 ft 11 kts 114°
2026-05-07 12:37 34.72907 -92.21495 262 ft 12 kts 114°
2026-05-07 12:37 34.72872 -92.21401 262 ft 11 kts 114°
2026-05-07 12:38 34.72837 -92.21316 262 ft 10 kts 130°
2026-05-07 12:38 34.72774 -92.21315 261 ft 9 kts 219°
2026-05-07 12:38 34.72727 -92.21373 262 ft 10 kts 226°
2026-05-07 12:38 34.72671 -92.21444 262 ft 12 kts 226°
2026-05-07 12:39 34.72606 -92.21526 262 ft 13 kts 227°
2026-05-07 12:39 34.72545 -92.21606 262 ft 12 kts 226°
2026-05-07 12:39 34.72485 -92.21680 262 ft 12 kts 225°
2026-05-07 12:39 34.72416 -92.21755 262 ft 14 kts 220°
2026-05-07 12:40 34.72339 -92.21834 262 ft 14 kts 220°
2026-05-07 12:40 34.72266 -92.21909 262 ft 13 kts 220°
2026-05-07 12:40 34.72202 -92.21981 262 ft 12 kts 225°
2026-05-07 12:40 34.72144 -92.22053 262 ft 11 kts 226°
2026-05-07 12:41 34.72092 -92.22120 262 ft 10 kts 226°
2026-05-07 12:41 34.72039 -92.22173 262 ft 9 kts 198°
2026-05-07 12:41 34.71983 -92.22150 261 ft 8 kts 139°
2026-05-07 12:41 34.71967 -92.22091 261 ft 7 kts 63°
2026-05-07 12:42 34.71983 -92.22066 261 ft 0 kts 47°
2026-05-07 12:42 34.72014 -92.22026 262 ft 28 kts 46°
2026-05-07 12:42 34.72345 -92.21603 260 ft 106 kts 46°
2026-05-07 12:42 34.73012 -92.20750 284 ft 165 kts 46°
2026-05-07 12:43 34.73747 -92.19675 943 ft 171 kts 51°
2026-05-07 12:43 34.74544 -92.18712 1924 ft 159 kts 36°
2026-05-07 12:43 34.75402 -92.17924 2518 ft 162 kts 38°
2026-05-07 12:43 34.76366 -92.17123 2983 ft 173 kts 31°
2026-05-07 12:44 34.77432 -92.16388 3530 ft 180 kts 29°
2026-05-07 12:44 34.78547 -92.15617 3926 ft 197 kts 29°
2026-05-07 12:44 34.79773 -92.14740 4394 ft 212 kts 29°
2026-05-07 12:44 34.81092 -92.13773 4821 ft 230 kts 29°
2026-05-07 12:45 34.82505 -92.12715 5312 ft 246 kts 30°
2026-05-07 12:45 34.83995 -92.11582 5788 ft 263 kts 29°
2026-05-07 12:45 34.85473 -92.10184 6353 ft 278 kts 42°
2026-05-07 12:45 34.86793 -92.08428 7074 ft 284 kts 44°
2026-05-07 12:46 34.88106 -92.06611 7747 ft 291 kts 44°
2026-05-07 12:46 34.89450 -92.04756 8401 ft 298 kts 44°
2026-05-07 12:46 34.90841 -92.02837 9062 ft 304 kts 43°
2026-05-07 12:46 34.92243 -92.00902 9719 ft 309 kts 43°
2026-05-07 12:47 34.93670 -91.98927 10229 ft 321 kts 42°
2026-05-07 12:47 34.95184 -91.96838 10593 ft 337 kts 43°
2026-05-07 12:47 34.96769 -91.94647 10961 ft 353 kts 43°
2026-05-07 12:47 34.98417 -91.92361 11654 ft 358 kts 43°
2026-05-07 12:48 35.00062 -91.90070 12304 ft 364 kts 43°
2026-05-07 12:48 35.01715 -91.87767 12969 ft 369 kts 43°
2026-05-07 12:48 35.03424 -91.85386 13643 ft 375 kts 43°
2026-05-07 12:48 35.05161 -91.82965 14288 ft 382 kts 43°
2026-05-07 12:49 35.06918 -91.80523 14888 ft 389 kts 43°
2026-05-07 12:49 35.08720 -91.78015 15512 ft 397 kts 43°
2026-05-07 12:49 35.10539 -91.75480 16122 ft 403 kts 42°
2026-05-07 12:49 35.12432 -91.72847 16356 ft 422 kts 43°
2026-05-07 12:50 35.14404 -91.70107 16639 ft 438 kts 43°
2026-05-07 12:50 35.16441 -91.67274 16930 ft 453 kts 43°
2026-05-07 12:50 35.18569 -91.64307 17183 ft 468 kts 43°
2026-05-07 12:50 35.20739 -91.61274 17505 ft 480 kts 43°
2026-05-07 12:51 35.22955 -91.58163 17968 ft 488 kts 43°
2026-05-07 12:51 35.25199 -91.55006 18565 ft 492 kts 43°
2026-05-07 12:51 35.27460 -91.51821 19083 ft 498 kts 43°
2026-05-07 12:51 35.29728 -91.48628 19594 ft 504 kts 43°
2026-05-07 12:52 35.32031 -91.45383 20162 ft 508 kts 43°
2026-05-07 12:52 35.34363 -91.42099 20637 ft 514 kts 43°
2026-05-07 12:52 35.36714 -91.38789 21102 ft 520 kts 43°
2026-05-07 12:52 35.39085 -91.35448 21615 ft 525 kts 43°
2026-05-07 12:53 35.41499 -91.32042 22088 ft 529 kts 43°
2026-05-07 12:53 35.43934 -91.28601 22496 ft 535 kts 43°
2026-05-07 12:53 35.46363 -91.25163 22965 ft 539 kts 43°
2026-05-07 12:53 35.48826 -91.21677 23347 ft 546 kts 43°
2026-05-07 12:54 35.51318 -91.18143 23796 ft 550 kts 43°
2026-05-07 12:54 35.53836 -91.14570 24204 ft 555 kts 43°
2026-05-07 12:54 35.56375 -91.10960 24686 ft 559 kts 43°
2026-05-07 12:54 35.58923 -91.07333 25100 ft 564 kts 43°
2026-05-07 12:55 35.61489 -91.03679 25569 ft 567 kts 43°
2026-05-07 12:55 35.64019 -91.00064 26234 ft 565 kts 43°
2026-05-07 12:55 35.66594 -90.96381 26795 ft 566 kts 43°
2026-05-07 12:55 35.69161 -90.92709 27299 ft 568 kts 43°
2026-05-07 12:56 35.71725 -90.89039 27765 ft 570 kts 43°
2026-05-07 12:56 35.74294 -90.85358 28257 ft 571 kts 42°
2026-05-07 12:56 35.76891 -90.81630 28863 ft 570 kts 42°
2026-05-07 12:56 35.79473 -90.77922 29352 ft 571 kts 42°
2026-05-07 12:57 35.82037 -90.74241 29778 ft 573 kts 42°
2026-05-07 12:57 35.84637 -90.70506 30208 ft 575 kts 42°
2026-05-07 12:57 35.87215 -90.66788 30751 ft 574 kts 43°
2026-05-07 12:57 35.89816 -90.63029 31263 ft 573 kts 42°
2026-05-07 12:58 35.92373 -90.59339 31796 ft 572 kts 41°
2026-05-07 12:58 35.94984 -90.55574 32196 ft 574 kts 41°
2026-05-07 12:58 35.97568 -90.51847 32620 ft 574 kts 41°
2026-05-07 12:58 36.00157 -90.48104 33111 ft 573 kts 41°
2026-05-07 12:59 36.02728 -90.44376 33595 ft 572 kts 41°
2026-05-07 12:59 36.05295 -90.40651 34042 ft 572 kts 41°
2026-05-07 12:59 36.07863 -90.36923 34437 ft 573 kts 41°
2026-05-07 12:59 36.10461 -90.33142 34840 ft 573 kts 42°
2026-05-07 13:00 36.13042 -90.29381 35087 ft 575 kts 41°
2026-05-07 13:00 36.15642 -90.25592 35097 ft 578 kts 41°
2026-05-07 13:00 36.20813 -90.18044 35098 ft 574 kts 41°
2026-05-07 13:01 36.25937 -90.10509 35100 ft 567 kts 42°
2026-05-07 13:01 36.31127 -90.03117 35101 ft 571 kts 39°
2026-05-07 13:02 36.36545 -89.95866 35096 ft 568 kts 38°
2026-05-07 13:02 36.41908 -89.88751 35096 ft 562 kts 37°
2026-05-07 13:03 36.47169 -89.81661 35099 ft 563 kts 38°
2026-05-07 13:03 36.52459 -89.74448 35098 ft 566 kts 38°
2026-05-07 13:04 36.57755 -89.67188 35093 ft 570 kts 39°
2026-05-07 13:04 36.63026 -89.59860 35091 ft 568 kts 38°
2026-05-07 13:05 36.68283 -89.52554 35095 ft 567 kts 38°
2026-05-07 13:05 36.73566 -89.45258 35095 ft 568 kts 39°
2026-05-07 13:06 36.78877 -89.37954 35094 ft 572 kts 38°
2026-05-07 13:06 36.84180 -89.30622 35091 ft 570 kts 39°
2026-05-07 13:07 36.89490 -89.23248 35093 ft 574 kts 39°
2026-05-07 13:07 36.94781 -89.15887 35093 ft 572 kts 39°
2026-05-07 13:08 37.00080 -89.08508 35101 ft 570 kts 38°
2026-05-07 13:08 37.05402 -89.01071 35100 ft 576 kts 39°
2026-05-07 13:09 37.10725 -88.93629 35095 ft 575 kts 39°
2026-05-07 13:09 37.16021 -88.86161 35092 ft 572 kts 39°
2026-05-07 13:10 37.21296 -88.78709 35094 ft 569 kts 39°
2026-05-07 13:10 37.26532 -88.71352 35093 ft 570 kts 39°
2026-05-07 13:11 37.31798 -88.63934 35088 ft 571 kts 39°
2026-05-07 13:11 37.37056 -88.56467 35084 ft 568 kts 39°
2026-05-07 13:12 37.42287 -88.49041 35082 ft 571 kts 39°
2026-05-07 13:12 37.47500 -88.41602 35081 ft 568 kts 39°
2026-05-07 13:13 37.52707 -88.34128 35079 ft 571 kts 41°
2026-05-07 13:13 37.57892 -88.26561 35083 ft 570 kts 40°
2026-05-07 13:14 37.63137 -88.19119 35084 ft 570 kts 39°
2026-05-07 13:14 37.68404 -88.11632 35174 ft 566 kts 40°
2026-05-07 13:15 37.70995 -88.07924 35014 ft 567 kts 40°
2026-05-07 13:15 37.73595 -88.04189 35073 ft 571 kts 40°
2026-05-07 13:15 37.78840 -87.96614 35083 ft 575 kts 41°
2026-05-07 13:16 37.84062 -87.89014 35088 ft 568 kts 40°
2026-05-07 13:16 37.89249 -87.81594 35096 ft 564 kts 38°
2026-05-07 13:17 37.94927 -87.74979 35097 ft 547 kts 25°
2026-05-07 13:17 38.01214 -87.69799 35099 ft 535 kts 17°
2026-05-07 13:18 38.07676 -87.65232 35095 ft 528 kts 15°
2026-05-07 13:18 38.14131 -87.60785 35095 ft 528 kts 15°
2026-05-07 13:19 38.20555 -87.56274 35095 ft 528 kts 15°
2026-05-07 13:19 38.26966 -87.51679 35095 ft 530 kts 16°
2026-05-07 13:20 38.33398 -87.47021 35092 ft 533 kts 17°
2026-05-07 13:20 38.39784 -87.42361 35087 ft 527 kts 16°
2026-05-07 13:21 38.46131 -87.37721 35083 ft 524 kts 16°
2026-05-07 13:21 38.52462 -87.33107 35085 ft 526 kts 17°
2026-05-07 13:22 38.58789 -87.28491 35085 ft 528 kts 18°
2026-05-07 13:22 38.65165 -87.23822 35093 ft 532 kts 18°
2026-05-07 13:23 38.71593 -87.19083 35095 ft 530 kts 18°
2026-05-07 13:23 38.77956 -87.14377 35086 ft 529 kts 18°
2026-05-07 13:24 38.84305 -87.09689 35079 ft 526 kts 18°
2026-05-07 13:24 38.90645 -87.05003 35079 ft 525 kts 18°
2026-05-07 13:25 38.96918 -87.00364 35078 ft 522 kts 18°
2026-05-07 13:25 39.03203 -86.95707 35090 ft 524 kts 18°
2026-05-07 13:26 39.09569 -86.90984 35089 ft 527 kts 18°
2026-05-07 13:26 39.15867 -86.86284 35077 ft 523 kts 18°
2026-05-07 13:27 39.22108 -86.81609 35076 ft 519 kts 18°
2026-05-07 13:27 39.28388 -86.76902 35075 ft 520 kts 18°
2026-05-07 13:28 39.34617 -86.72243 35074 ft 520 kts 18°
2026-05-07 13:28 39.40882 -86.67539 35066 ft 519 kts 18°
2026-05-07 13:29 39.47112 -86.62852 35056 ft 522 kts 19°
2026-05-07 13:29 39.53383 -86.58119 35060 ft 519 kts 19°
2026-05-07 13:30 39.59603 -86.53421 35062 ft 518 kts 19°
2026-05-07 13:30 39.65798 -86.48722 35053 ft 517 kts 19°
2026-05-07 13:31 39.72018 -86.43995 35059 ft 518 kts 19°
2026-05-07 13:31 39.78244 -86.39304 35059 ft 515 kts 17°
2026-05-07 13:32 39.84631 -86.35654 35068 ft 491 kts
2026-05-07 13:32 39.91184 -86.33357 35061 ft 491 kts
2026-05-07 13:33 39.94427 -86.31742 35055 ft 512 kts 16°
2026-05-07 13:33 39.97490 -86.29233 35304 ft 528 kts 28°
2026-05-07 13:33 40.00333 -86.26230 35134 ft 536 kts 32°
2026-05-07 13:33 40.03164 -86.22980 35074 ft 538 kts 37°
2026-05-07 13:34 40.05565 -86.19295 35063 ft 545 kts 51°
2026-05-07 13:34 40.09450 -86.10778 35064 ft 543 kts 47°
2026-05-07 13:35 40.14679 -86.03818 35055 ft 530 kts 31°
2026-05-07 13:35 40.20449 -85.98046 35055 ft 523 kts 27°
2026-05-07 13:36 40.26291 -85.92400 35050 ft 523 kts 28°
2026-05-07 13:36 40.32056 -85.86556 35050 ft 525 kts 29°
2026-05-07 13:37 40.37729 -85.80577 35050 ft 523 kts 30°
2026-05-07 13:37 40.43357 -85.74562 35052 ft 524 kts 30°
2026-05-07 13:38 40.48980 -85.68519 35052 ft 525 kts 30°
2026-05-07 13:38 40.54621 -85.62455 34977 ft 524 kts 30°
2026-05-07 13:39 40.60262 -85.56383 34708 ft 524 kts 30°
2026-05-07 13:39 40.63084 -85.53342 34493 ft 524 kts 30°
2026-05-07 13:39 40.65907 -85.50300 34157 ft 527 kts 30°
2026-05-07 13:39 40.68740 -85.47233 33739 ft 530 kts 31°
2026-05-07 13:40 40.71524 -85.44119 33319 ft 531 kts 32°
2026-05-07 13:40 40.74305 -85.40894 32917 ft 529 kts 33°
2026-05-07 13:40 40.77028 -85.37663 32518 ft 526 kts 33°
2026-05-07 13:40 40.79714 -85.34448 32105 ft 523 kts 34°
2026-05-07 13:41 40.82390 -85.31243 31672 ft 521 kts 34°
2026-05-07 13:41 40.85078 -85.28037 31212 ft 522 kts 35°
2026-05-07 13:41 40.87694 -85.24733 30756 ft 526 kts 38°
2026-05-07 13:41 40.90199 -85.21242 30298 ft 525 kts 41°
2026-05-07 13:42 40.92611 -85.17632 29824 ft 522 kts 43°
2026-05-07 13:42 40.94937 -85.14012 29421 ft 515 kts 44°
2026-05-07 13:42 40.97202 -85.10419 29117 ft 508 kts 44°
2026-05-07 13:42 40.99441 -85.06859 29035 ft 497 kts 44°
2026-05-07 13:43 41.01652 -85.03357 29035 ft 489 kts 44°
2026-05-07 13:43 41.06007 -84.96549 29031 ft 489 kts 43°
2026-05-07 13:44 41.10519 -84.89594 29036 ft 508 kts 43°
2026-05-07 13:44 41.15148 -84.82442 29020 ft 516 kts 43°
2026-05-07 13:45 41.19871 -84.75356 29018 ft 508 kts 39°
2026-05-07 13:45 41.24806 -84.68661 29018 ft 508 kts 38°
2026-05-07 13:46 41.29784 -84.62026 29012 ft 507 kts 38°
2026-05-07 13:46 41.34921 -84.55809 29018 ft 500 kts 31°
2026-05-07 13:46 41.37653 -84.52964 28914 ft 500 kts 28°
2026-05-07 13:47 41.40454 -84.50202 28449 ft 505 kts 27°
2026-05-07 13:47 41.43326 -84.47464 27869 ft 510 kts 27°
2026-05-07 13:47 41.46221 -84.44741 27290 ft 510 kts 27°
2026-05-07 13:47 41.49099 -84.42011 26689 ft 507 kts 28°
2026-05-07 13:48 41.51911 -84.39284 26102 ft 504 kts 29°
2026-05-07 13:48 41.54704 -84.36480 25520 ft 501 kts 31°
2026-05-07 13:48 41.57430 -84.33619 24911 ft 498 kts 33°
2026-05-07 13:48 41.60082 -84.30679 24310 ft 495 kts 35°
2026-05-07 13:49 41.62645 -84.27662 23703 ft 492 kts 37°
2026-05-07 13:49 41.65121 -84.24546 23064 ft 488 kts 39°
2026-05-07 13:49 41.67488 -84.21343 22412 ft 485 kts 42°
2026-05-07 13:49 41.69745 -84.18051 21784 ft 480 kts 44°
2026-05-07 13:50 41.72080 -84.14864 21134 ft 472 kts 38°
2026-05-07 13:50 41.74535 -84.12104 20510 ft 462 kts 32°
2026-05-07 13:50 41.78043 -84.08857 19645 ft 452 kts 28°
2026-05-07 13:50 41.79763 -84.07385 19227 ft 448 kts 27°
2026-05-07 13:51 41.82399 -84.05203 18580 ft 442 kts 25°
2026-05-07 13:51 41.85109 -84.03284 17922 ft 433 kts 20°
2026-05-07 13:51 41.87829 -84.01681 17309 ft 425 kts 16°
2026-05-07 13:51 41.90527 -84.00286 16792 ft 417 kts 16°
2026-05-07 13:52 41.93187 -83.98756 16264 ft 411 kts 19°
2026-05-07 13:52 41.95767 -83.97141 15756 ft 405 kts 20°
2026-05-07 13:52 41.98275 -83.95529 15239 ft 399 kts 20°
2026-05-07 13:52 42.00735 -83.93938 14805 ft 390 kts 20°
2026-05-07 13:53 42.03144 -83.92373 14415 ft 381 kts 20°
2026-05-07 13:53 42.05506 -83.90842 14023 ft 372 kts 20°
2026-05-07 13:53 42.07793 -83.89362 13638 ft 364 kts 20°
2026-05-07 13:53 42.10053 -83.87904 13256 ft 356 kts 20°
2026-05-07 13:54 42.12269 -83.86480 12872 ft 349 kts 20°
2026-05-07 13:54 42.14436 -83.85091 12494 ft 343 kts 20°
2026-05-07 13:54 42.16573 -83.83728 12112 ft 337 kts 20°
2026-05-07 13:54 42.18680 -83.82392 11726 ft 331 kts 20°
2026-05-07 13:55 42.20746 -83.81094 11410 ft 323 kts 20°
2026-05-07 13:55 42.22760 -83.79830 11154 ft 315 kts 20°
2026-05-07 13:55 42.24731 -83.78597 10898 ft 307 kts 20°
2026-05-07 13:55 42.26653 -83.77398 10637 ft 299 kts 20°
2026-05-07 13:56 42.28525 -83.76231 10329 ft 295 kts 20°
2026-05-07 13:56 42.30370 -83.75090 9997 ft 291 kts 20°
2026-05-07 13:56 42.32188 -83.73978 9666 ft 287 kts 20°
2026-05-07 13:56 42.33995 -83.72876 9332 ft 284 kts 20°
2026-05-07 13:57 42.35778 -83.71792 9003 ft 281 kts 20°
2026-05-07 13:57 42.37573 -83.70705 8662 ft 278 kts 20°
2026-05-07 13:57 42.39326 -83.69649 8330 ft 275 kts 19°
2026-05-07 13:57 42.41056 -83.68610 8008 ft 272 kts 20°
2026-05-07 13:58 42.42753 -83.67590 7687 ft 266 kts 20°
2026-05-07 13:58 42.44433 -83.66585 7350 ft 261 kts 20°
2026-05-07 13:58 42.46067 -83.65536 7014 ft 259 kts 28°
2026-05-07 13:58 42.47339 -83.63813 6678 ft 262 kts 57°
2026-05-07 13:59 42.47854 -83.61485 6348 ft 262 kts 88°
2026-05-07 13:59 42.47486 -83.59116 6019 ft 258 kts 115°
2026-05-07 13:59 42.46624 -83.57031 5692 ft 254 kts 122°
2026-05-07 13:59 42.45706 -83.55019 5405 ft 250 kts 123°
2026-05-07 14:00 42.44802 -83.53034 5149 ft 245 kts 122°
2026-05-07 14:00 42.43924 -83.51100 4913 ft 237 kts 122°
2026-05-07 14:00 42.43076 -83.49227 4655 ft 231 kts 122°
2026-05-07 14:00 42.42245 -83.47394 4398 ft 225 kts 122°
2026-05-07 14:01 42.41425 -83.45591 4144 ft 225 kts 122°
2026-05-07 14:01 42.40622 -83.43826 3907 ft 218 kts 122°
2026-05-07 14:01 42.39853 -83.42137 3785 ft 207 kts 122°
2026-05-07 14:01 42.39088 -83.40460 3517 ft 208 kts 122°
2026-05-07 14:02 42.38340 -83.38825 3240 ft 206 kts 122°
2026-05-07 14:02 42.37586 -83.37184 2960 ft 204 kts 122°
2026-05-07 14:02 42.36849 -83.35577 2844 ft 198 kts 122°
2026-05-07 14:02 42.36128 -83.34000 2856 ft 198 kts 123°
2026-05-07 14:03 42.35407 -83.32433 2856 ft 198 kts 126°
2026-05-07 14:03 42.34404 -83.31194 2860 ft 195 kts 152°
2026-05-07 14:03 42.33156 -83.30521 2859 ft 192 kts 172°
2026-05-07 14:03 42.31850 -83.30260 2823 ft 182 kts 178°
2026-05-07 14:04 42.30644 -83.30462 2505 ft 173 kts 208°
2026-05-07 14:04 42.29680 -83.31285 2283 ft 153 kts 215°
2026-05-07 14:04 42.28782 -83.31981 2067 ft 150 kts 213°
2026-05-07 14:04 42.27883 -83.32666 1865 ft 146 kts 213°
2026-05-07 14:05 42.27000 -83.33334 1667 ft 146 kts 213°
2026-05-07 14:05 42.26115 -83.34012 1464 ft 147 kts 213°
2026-05-07 14:05 42.25225 -83.34707 1282 ft 147 kts 212°
2026-05-07 14:05 42.24327 -83.35367 1089 ft 147 kts 210°
2026-05-07 14:06 42.23425 -83.36032 882 ft 147 kts 211°
2026-05-07 14:06 42.22535 -83.36697 677 ft 145 kts 210°
2026-05-07 14:06 42.21719 -83.37300 642 ft 107 kts 210°
2026-05-07 14:06 42.21251 -83.37643 645 ft 54 kts 208°
2026-05-07 14:07 42.20963 -83.37856 646 ft 32 kts 208°
2026-05-07 14:07 42.20787 -83.37952 648 ft 25 kts 192°
2026-05-07 14:07 42.20640 -83.37958 648 ft 13 kts 172°
2026-05-07 14:07 42.20608 -83.37872 646 ft 13 kts 51°
2026-05-07 14:08 42.20687 -83.37803 645 ft 13 kts 28°
2026-05-07 14:08 42.20766 -83.37745 645 ft 12 kts 29°
2026-05-07 14:08 42.20845 -83.37688 645 ft 12 kts 29°
2026-05-07 14:08 42.20919 -83.37632 645 ft 12 kts 29°
2026-05-07 14:09 42.20977 -83.37588 644 ft 3 kts 29°
2026-05-07 14:09 42.20999 -83.37572 644 ft 4 kts 29°
2026-05-07 14:09 42.21025 -83.37552 643 ft 4 kts 28°
2026-05-07 14:09 42.21056 -83.37530 643 ft 6 kts 29°
2026-05-07 14:10 42.21130 -83.37476 642 ft 15 kts 28°
2026-05-07 14:10 42.21224 -83.37407 642 ft 15 kts 28°
2026-05-07 14:10 42.21344 -83.37318 642 ft 14 kts 29°
2026-05-07 14:10 42.21402 -83.37276 642 ft 14 kts 28°
2026-05-07 14:11 42.21486 -83.37214 642 ft 14 kts 29°
2026-05-07 14:11 42.21574 -83.37149 642 ft 14 kts 29°
2026-05-07 14:11 42.21663 -83.37085 642 ft 14 kts 29°
2026-05-07 14:11 42.21751 -83.37019 642 ft 15 kts 28°
2026-05-07 14:12 42.21841 -83.36953 642 ft 14 kts 29°
2026-05-07 14:12 42.21928 -83.36890 642 ft 13 kts 29°
2026-05-07 14:12 42.22003 -83.36834 642 ft 10 kts 31°
2026-05-07 14:12 42.22023 -83.36760 642 ft 8 kts 105°
2026-05-07 14:13 42.21995 -83.36676 642 ft 11 kts 118°
2026-05-07 14:13 42.21950 -83.36565 642 ft 14 kts 118°
2026-05-07 14:13 42.21903 -83.36446 642 ft 14 kts 119°
2026-05-07 14:13 42.21856 -83.36331 642 ft 13 kts 119°
2026-05-07 14:14 42.21814 -83.36214 642 ft 13 kts 101°
2026-05-07 14:14 42.21812 -83.36087 642 ft 13 kts 89°
2026-05-07 14:14 42.21813 -83.35962 642 ft 14 kts 89°
2026-05-07 14:14 42.21816 -83.35828 642 ft 13 kts 89°
2026-05-07 14:15 42.21823 -83.35712 642 ft 11 kts 65°
2026-05-07 14:15 42.21888 -83.35644 642 ft 13 kts 30°
2026-05-07 14:15 42.21975 -83.35580 642 ft 13 kts 28°
2026-05-07 14:15 42.22057 -83.35520 642 ft 13 kts 29°
2026-05-07 14:16 42.22138 -83.35460 642 ft 12 kts 29°
2026-05-07 14:16 42.22214 -83.35404 642 ft 12 kts 30°
2026-05-07 14:16 42.22287 -83.35346 642 ft 11 kts 36°
2026-05-07 14:16 42.22349 -83.35281 642 ft 11 kts 46°
2026-05-07 14:17 42.22390 -83.35213 642 ft 6 kts 57°
2026-05-07 14:17 42.22400 -83.35183 642 ft 3 kts 71°
2026-05-07 14:17 42.22405 -83.35143 642 ft 4 kts 92°
2026-05-07 14:17 42.22395 -83.35107 642 ft 4 kts 117°
2026-05-07 14:18 42.22384 -83.35077 642 ft 3 kts 118°
2026-05-07 14:18 42.22380 -83.35067 642 ft 0 kts 118°